White Center, Washington, United States
Lat: 47.52N, Lon: 122.35W
Wx Zone: WAZ508
Local Info
Past Weather Observations for Today

NOTE: This archive is for the closest National Weather Service station to White Center. Information may differ from the station used for current weather conditions.

Click here for Long-term Archive

Time Weather Temperature Dewpoint Humidity Pressure Winds Precip Visibility
21:53
Clear
64°F / 18°C 55°F / 13°C 73% 29.89 in
(1012 mb)
NW 4.6 mph
(NW 7 kph)
- 10SM
20:53
Clear
66°F / 19°C 55°F / 13°C 68% 29.89 in
(1012 mb)
W 4.6 mph
(W 7 kph)
- 10SM
19:53
Clear
66°F / 19°C 55°F / 13°C 68% 29.92 in
(1013 mb)
NW 3.5 mph
(NW 6 kph)
- 10SM
18:53
Clear
70°F / 21°C 55°F / 13°C 60% 29.92 in
(1013 mb)
NW 4.6 mph
(NW 7 kph)
- 10SM
17:53
Clear
72°F / 22°C 55°F / 13°C 57% 29.92 in
(1013 mb)
NNW 4.6 mph
(NNW 7 kph)
- 10SM
16:53
Clear
72°F / 22°C 55°F / 13°C 57% 29.92 in
(1013 mb)
NW 6.9 mph
(NW 11 kph)
- 10SM
15:53
Clear
73°F / 23°C 55°F / 13°C 53% 29.95 in
(1014 mb)
NW 8.1 mph
(NW 13 kph)
- 10SM
14:53
Clear
73°F / 23°C 55°F / 13°C 53% 29.98 in
(1015 mb)
NW 9.2 mph
(NW 15 kph)
- 10SM
13:53
Clear
72°F / 22°C 55°F / 13°C 57% 29.98 in
(1015 mb)
NW 11.5 mph
(NW 19 kph)
- 10SM
12:53
Clear
73°F / 23°C 55°F / 13°C 53% 30.01 in
(1016 mb)
NW 8.1 mph
(NW 13 kph)
- 10SM
11:53
Clear
72°F / 22°C 55°F / 13°C 57% 30.04 in
(1017 mb)
Variable 5.8 mph
(Variable 9 kph)
- 10SM
10:53
Partly Cloudy
68°F / 20°C 55°F / 13°C 64% 30.06 in
(1018 mb)
Variable 4.6 mph
(Variable 7 kph)
- 10SM
10:44
Partly Cloudy
68°F / 20°C 55°F / 13°C 64% 30.09 in
(1019 mb)
Variable 6.9 mph
(Variable 11 kph)
- 10SM
10:16
Mostly Cloudy
66°F / 19°C 55°F / 13°C 68% 30.09 in
(1019 mb)
Variable 6.9 mph
(Variable 11 kph)
- 10SM
09:53
Mostly Cloudy
64°F / 18°C 55°F / 13°C 73% 30.09 in
(1019 mb)
Variable 5.8 mph
(Variable 9 kph)
- 10SM
09:20
Overcast
63°F / 17°C 55°F / 13°C 77% 30.09 in
(1019 mb)
NNW 5.8 mph
(NNW 9 kph)
- 10SM
09:13
Overcast
63°F / 17°C 55°F / 13°C 77% 30.12 in
(1020 mb)
N 4.6 mph
(N 7 kph)
- 10SM
08:53
Overcast
63°F / 17°C 55°F / 13°C 77% 30.09 in
(1019 mb)
Variable 3.5 mph
(Variable 6 kph)
- 10SM
07:53
Overcast
63°F / 17°C 55°F / 13°C 77% 30.12 in
(1020 mb)
Variable 4.6 mph
(Variable 7 kph)
- 10SM
06:53
Overcast
63°F / 17°C 55°F / 13°C 77% 30.09 in
(1019 mb)
NNW 4.6 mph
(NNW 7 kph)
- 10SM
05:53
Mostly Cloudy
61°F / 16°C 55°F / 13°C 83% 30.09 in
(1019 mb)
NW 4.6 mph
(NW 7 kph)
- 10SM
05:12
Mostly Cloudy
61°F / 16°C 54°F / 12°C 77% 30.09 in
(1019 mb)
Calm - 10SM
04:53
Clear
61°F / 16°C 54°F / 12°C 77% 30.09 in
(1019 mb)
Calm - 10SM
03:53
Clear
61°F / 16°C 54°F / 12°C 77% 30.09 in
(1019 mb)
Calm - 10SM
02:53
Clear
63°F / 17°C 54°F / 12°C 73% 30.09 in
(1019 mb)
Calm - 10SM
01:53
Clear
64°F / 18°C 55°F / 13°C 73% 30.09 in
(1019 mb)
Calm - 10SM
00:53
Clear
64°F / 18°C 55°F / 13°C 73% 30.12 in
(1020 mb)
Calm - 10SM
Time Weather Temperature Dewpoint Humidity Pressure Winds Precip Visibility


Weather for websites

WeatherForYou.com, LLC is not responsible for any damages or problems caused by this service. Current weather conditions are obtained from the closest station including government and personal stations which may have varying degrees of accuracy. Weather forecasts are derived from the NOAA NDFD. Like all things, this site belongs to Jesus Christ... He just trusts me to maintain it. If you have any questions or comments email webmaster@weatherforyou.com

Copyright © 2014, WeatherForYou.com LLC. All rights reserved.